EA3GKP-7 Weather Reports


Display with metric or nautical units.
time (UTC)temp
F
wind
direction
speed
MPH
gust
MPH
rain 1hr
in
rain 24hr
in
rain mn
in
humidity
%
barometer
mb
20260510101731 73 0.0 0.0 0.00 0.00 0.00 10 1016.4
20260510101231 74 0.0 0.0 0.00 0.00 0.00 10 1016.4
20260510100731 76 0.0 0.0 0.00 0.00 0.00 10 1016.3
20260510100231 75 0.0 0.0 0.00 0.00 0.00 10 1016.3
20260510095731 74 0.0 0.0 0.00 0.00 0.00 10 1016.4
20260510095231 75 0.0 0.0 0.00 0.00 0.00 10 1016.5
20260510094731 76 0.0 0.0 0.00 0.00 0.00 10 1016.4
20260510094231 75 0.0 0.0 0.00 0.00 0.00 10 1016.5
20260510093731 74 0.0 0.0 0.00 0.00 0.00 10 1016.5
20260510093231 73 0.0 0.0 0.00 0.00 0.00 10 1016.5
20260510092731 74 0.0 0.0 0.00 0.00 0.00 10 1016.5
20260510092231 73 0.0 0.0 0.00 0.00 0.00 10 1016.7
20260510091731 76 0.0 0.0 0.00 0.00 0.00 10 1016.6
20260510091231 73 0.0 0.0 0.00 0.00 0.00 10 1016.6
20260510090730 73 0.0 0.0 0.00 0.00 0.00 10 1016.7
20260510090231 72 0.0 0.0 0.00 0.00 0.00 10 1016.7
20260510085731 73 0.0 0.0 0.00 0.00 0.00 10 1016.6
20260510085231 72 0.0 0.0 0.00 0.00 0.00 10 1016.6
20260510084731 73 0.0 0.0 0.00 0.00 0.00 10 1016.5
20260510084230 71 0.0 0.0 0.00 0.00 0.00 10 1016.6
20260510083730 72 0.0 0.0 0.00 0.00 0.00 10 1016.7
20260510083230 72 0.0 0.0 0.00 0.00 0.00 10 1016.6
20260510082730 71 0.0 0.0 0.00 0.00 0.00 10 1016.7
20260510082230 71 0.0 0.0 0.00 0.00 0.00 10 1016.7
20260510081730 70 0.0 0.0 0.00 0.00 0.00 10 1016.7
20260510081230 70 0.0 0.0 0.00 0.00 0.00 10 1016.7
20260510080730 70 0.0 0.0 0.00 0.00 0.00 10 1016.7
20260510080230 69 0.0 0.0 0.00 0.00 0.00 10 1016.7
20260510075730 68 0.0 0.0 0.00 0.00 0.00 10 1016.7
20260510075230 68 0.0 0.0 0.00 0.00 0.00 10 1016.7
20260510074730 68 0.0 0.0 0.00 0.00 0.00 10 1016.7
20260510074230 68 0.0 0.0 0.00 0.00 0.00 10 1016.7
20260510073730 67 0.0 0.0 0.00 0.00 0.00 10 1016.7
20260510073230 67 0.0 0.0 0.00 0.00 0.00 10 1016.6
20260510072730 67 0.0 0.0 0.00 0.00 0.00 10 1016.7
20260510072230 67 0.0 0.0 0.00 0.00 0.00 10 1016.6
20260510071730 67 0.0 0.0 0.00 0.00 0.00 10 1016.6
20260510071230 67 0.0 0.0 0.00 0.00 0.00 10 1016.6
20260510070730 67 0.0 0.0 0.00 0.00 0.00 10 1016.7
20260510070230 68 0.0 0.0 0.00 0.00 0.00 10 1016.5
20260510065730 68 0.0 0.0 0.00 0.00 0.00 10 1016.5
20260510065230 67 0.0 0.0 0.00 0.00 0.00 10 1016.6
20260510064730 66 0.0 0.0 0.00 0.00 0.00 10 1016.5
20260510064230 66 0.0 0.0 0.00 0.00 0.00 10 1016.5
20260510063730 65 0.0 0.0 0.00 0.00 0.00 10 1016.6
20260510063230 64 0.0 0.0 0.00 0.00 0.00 10 1016.8
20260510062730 62 0.0 0.0 0.00 0.00 0.00 10 1016.8
20260510062230 61 0.0 0.0 0.00 0.00 0.00 10 1016.8
20260510061730 61 0.0 0.0 0.00 0.00 0.00 10 1016.9
20260510061230 61 0.0 0.0 0.00 0.00 0.00 10 1016.9
20260510060730 60 0.0 0.0 0.00 0.00 0.00 10 1016.8
20260510060230 60 0.0 0.0 0.00 0.00 0.00 10 1016.8
20260510055730 59 0.0 0.0 0.00 0.00 0.00 10 1016.8
20260510055230 59 0.0 0.0 0.00 0.00 0.00 10 1016.8
20260510054730 59 0.0 0.0 0.00 0.00 0.00 10 1016.8
20260510054230 58 0.0 0.0 0.00 0.00 0.00 10 1016.9
20260510053730 58 0.0 0.0 0.00 0.00 0.00 10 1016.8
20260510053230 58 0.0 0.0 0.00 0.00 0.00 10 1016.8
20260510052730 58 0.0 0.0 0.00 0.00 0.00 10 1016.9
20260510052230 58 0.0 0.0 0.00 0.00 0.00 10 1016.9
20260510051730 58 0.0 0.0 0.00 0.00 0.00 10 1016.8
20260510051230 58 0.0 0.0 0.00 0.00 0.00 10 1016.9
20260510050730 58 0.0 0.0 0.00 0.00 0.00 10 1016.8
20260510050230 58 0.0 0.0 0.00 0.00 0.00 10 1016.9
20260510045730 58 0.0 0.0 0.00 0.00 0.00 10 1016.9
20260510045230 58 0.0 0.0 0.00 0.00 0.00 10 1016.9
20260510044730 58 0.0 0.0 0.00 0.00 0.00 10 1016.9
20260510044230 58 0.0 0.0 0.00 0.00 0.00 10 1016.9
20260510043730 58 0.0 0.0 0.00 0.00 0.00 10 1016.9
20260510043230 58 0.0 0.0 0.00 0.00 0.00 10 1016.9
20260510042730 58 0.0 0.0 0.00 0.00 0.00 10 1017.0
20260510042230 58 0.0 0.0 0.00 0.00 0.00 10 1017.0
20260510041730 58 0.0 0.0 0.00 0.00 0.00 10 1017.0
20260510041230 58 0.0 0.0 0.00 0.00 0.00 10 1016.9
20260510040730 58 0.0 0.0 0.00 0.00 0.00 10 1016.8
20260510040230 58 0.0 0.0 0.00 0.00 0.00 10 1016.9
20260510035730 58 0.0 0.0 0.00 0.00 0.00 10 1016.9
20260510035230 58 0.0 0.0 0.00 0.00 0.00 10 1016.9
20260510034730 58 0.0 0.0 0.00 0.00 0.00 10 1016.8
20260510034230 58 0.0 0.0 0.00 0.00 0.00 10 1016.9
20260510033730 58 0.0 0.0 0.00 0.00 0.00 10 1016.9
20260510033230 58 0.0 0.0 0.00 0.00 0.00 10 1016.8
20260510032730 58 0.0 0.0 0.00 0.00 0.00 10 1016.8
20260510032230 58 0.0 0.0 0.00 0.00 0.00 10 1016.9
20260510031730 58 0.0 0.0 0.00 0.00 0.00 10 1017.0
20260510031230 58 0.0 0.0 0.00 0.00 0.00 10 1016.9
20260510030730 58 0.0 0.0 0.00 0.00 0.00 10 1017.0
20260510030230 58 0.0 0.0 0.00 0.00 0.00 10 1017.0
20260510025730 58 0.0 0.0 0.00 0.00 0.00 10 1017.0
20260510025230 58 0.0 0.0 0.00 0.00 0.00 10 1017.0
20260510024730 58 0.0 0.0 0.00 0.00 0.00 10 1017.0
20260510024230 58 0.0 0.0 0.00 0.00 0.00 10 1017.1
20260510023730 58 0.0 0.0 0.00 0.00 0.00 10 1017.2
20260510023230 58 0.0 0.0 0.00 0.00 0.00 10 1017.2
20260510022730 59 0.0 0.0 0.00 0.00 0.00 10 1017.3
20260510022230 59 0.0 0.0 0.00 0.00 0.00 10 1017.3
20260510021730 59 0.0 0.0 0.00 0.00 0.00 10 1017.4
20260510021230 59 0.0 0.0 0.00 0.00 0.00 10 1017.3
20260510020730 59 0.0 0.0 0.00 0.00 0.00 10 1017.3
20260510020230 59 0.0 0.0 0.00 0.00 0.00 10 1017.2
20260510015730 59 0.0 0.0 0.00 0.00 0.00 10 1017.1
20260510015230 59 0.0 0.0 0.00 0.00 0.00 10 1017.1
20260510014730 59 0.0 0.0 0.00 0.00 0.00 10 1017.0
20260510014230 59 0.0 0.0 0.00 0.00 0.00 10 1017.0
20260510013730 59 0.0 0.0 0.00 0.00 0.00 10 1017.0
20260510013230 59 0.0 0.0 0.00 0.00 0.00 10 1016.9
20260510012730 59 0.0 0.0 0.00 0.00 0.00 10 1016.9
20260510012230 59 0.0 0.0 0.00 0.00 0.00 10 1017.0
20260510011730 59 0.0 0.0 0.00 0.00 0.00 10 1017.0
20260510011230 59 0.0 0.0 0.00 0.00 0.00 10 1016.9
20260510010730 59 0.0 0.0 0.00 0.00 0.00 10 1016.9
20260510010230 59 0.0 0.0 0.00 0.00 0.00 10 1017.0
20260510005730 59 0.0 0.0 0.00 0.00 0.00 10 1017.0
20260510005230 59 0.0 0.0 0.00 0.00 0.00 10 1017.0
20260510004730 60 0.0 0.0 0.00 0.00 0.00 10 1017.0
20260510004230 60 0.0 0.0 0.00 0.00 0.00 10 1017.1
20260510003730 60 0.0 0.0 0.00 0.00 0.00 10 1017.2
20260510003230 59 0.0 0.0 0.00 0.00 0.00 10 1017.2
20260510002730 59 0.0 0.0 0.00 0.00 0.00 10 1017.3
20260510002230 59 0.0 0.0 0.00 0.00 0.00 10 1017.3
20260510001730 59 0.0 0.0 0.00 0.00 0.00 10 1017.4
20260510001230 60 0.0 0.0 0.00 0.00 0.00 10 1017.4
20260510000730 59 0.0 0.0 0.00 0.00 0.00 10 1017.5
20260510000230 59 0.0 0.0 0.00 0.00 0.00 10 1017.7
20260509235730 60 0.0 0.0 0.00 0.00 0.00 10 1017.9
20260509235230 60 0.0 0.0 0.00 0.00 0.00 10 1017.9
20260509234730 60 0.0 0.0 0.00 0.00 0.00 10 1017.9
20260509234230 60 0.0 0.0 0.00 0.00 0.00 10 1017.9
20260509233730 60 0.0 0.0 0.00 0.00 0.00 10 1017.9
20260509233230 60 0.0 0.0 0.00 0.00 0.00 10 1018.0
20260509232730 60 0.0 0.0 0.00 0.00 0.00 10 1018.0
20260509232230 60 0.0 0.0 0.00 0.00 0.00 10 1018.0
20260509231730 60 0.0 0.0 0.00 0.00 0.00 10 1018.1
20260509231231 60 0.0 0.0 0.00 0.00 0.00 10 1018.1
20260509230730 60 0.0 0.0 0.00 0.00 0.00 10 1018.0
20260509230230 60 0.0 0.0 0.00 0.00 0.00 10 1018.0
20260509225730 60 0.0 0.0 0.00 0.00 0.00 10 1018.0
20260509225230 60 0.0 0.0 0.00 0.00 0.00 10 1018.0
20260509224730 60 0.0 0.0 0.00 0.00 0.00 10 1018.0
20260509224230 61 0.0 0.0 0.00 0.00 0.00 10 1017.8
20260509223730 61 0.0 0.0 0.00 0.00 0.00 10 1017.8
20260509223230 61 0.0 0.0 0.00 0.00 0.00 10 1017.9
20260509222730 61 0.0 0.0 0.00 0.00 0.00 10 1018.0
20260509222230 61 0.0 0.0 0.00 0.00 0.00 10 1018.0
20260509221730 61 0.0 0.0 0.00 0.00 0.00 10 1017.9
20260509221230 61 0.0 0.0 0.00 0.00 0.00 10 1018.0
20260509220730 61 0.0 0.0 0.00 0.00 0.00 10 1018.0
20260509220230 61 0.0 0.0 0.00 0.00 0.00 10 1018.0
20260509215730 61 0.0 0.0 0.00 0.00 0.00 10 1018.0
20260509215230 61 0.0 0.0 0.00 0.00 0.00 10 1018.0
20260509214730 61 0.0 0.0 0.00 0.00 0.00 10 1018.0
20260509214230 61 0.0 0.0 0.00 0.00 0.00 10 1018.0
20260509213730 61 0.0 0.0 0.00 0.00 0.00 10 1018.0
20260509213230 61 0.0 0.0 0.00 0.00 0.00 10 1017.9
20260509212730 61 0.0 0.0 0.00 0.00 0.00 10 1017.9
20260509212230 61 0.0 0.0 0.00 0.00 0.00 10 1017.8
20260509211729 61 0.0 0.0 0.00 0.00 0.00 10 1017.7
20260509211230 61 0.0 0.0 0.00 0.00 0.00 10 1017.7
20260509210729 62 0.0 0.0 0.00 0.00 0.00 10 1017.8
20260509210230 62 0.0 0.0 0.00 0.00 0.00 10 1017.8
20260509205729 62 0.0 0.0 0.00 0.00 0.00 10 1017.8
20260509205229 62 0.0 0.0 0.00 0.00 0.00 10 1017.7
20260509204729 62 0.0 0.0 0.00 0.00 0.00 10 1017.7
20260509204229 62 0.0 0.0 0.00 0.00 0.00 10 1017.5
20260509203729 62 0.0 0.0 0.00 0.00 0.00 10 1017.4
20260509203229 62 0.0 0.0 0.00 0.00 0.00 10 1017.5
20260509202729 62 0.0 0.0 0.00 0.00 0.00 10 1017.4
20260509202229 62 0.0 0.0 0.00 0.00 0.00 10 1017.3
20260509201729 61 0.0 0.0 0.00 0.00 0.00 10 1017.2
20260509201229 61 0.0 0.0 0.00 0.00 0.00 10 1017.1
20260509200729 61 0.0 0.0 0.00 0.00 0.00 10 1017.0
20260509200229 62 0.0 0.0 0.00 0.00 0.00 10 1016.9
20260509195729 62 0.0 0.0 0.00 0.00 0.00 10 1016.8
20260509195229 62 0.0 0.0 0.00 0.00 0.00 10 1016.8
20260509194729 62 0.0 0.0 0.00 0.00 0.00 10 1016.7
20260509194229 62 0.0 0.0 0.00 0.00 0.00 10 1016.5
20260509193729 62 0.0 0.0 0.00 0.00 0.00 10 1016.5
20260509193229 62 0.0 0.0 0.00 0.00 0.00 10 1016.4
20260509192729 62 0.0 0.0 0.00 0.00 0.00 10 1016.4
20260509192229 62 0.0 0.0 0.00 0.00 0.00 10 1016.4
20260509191729 62 0.0 0.0 0.00 0.00 0.00 10 1016.4
20260509191229 62 0.0 0.0 0.00 0.00 0.00 10 1016.2
20260509190729 62 0.0 0.0 0.00 0.00 0.00 10 1016.2
20260509190229 62 0.0 0.0 0.00 0.00 0.00 10 1016.1
20260509185729 62 0.0 0.0 0.00 0.00 0.00 10 1016.0
20260509185229 62 0.0 0.0 0.00 0.00 0.00 10 1015.9
20260509184729 62 0.0 0.0 0.00 0.00 0.00 10 1015.8
20260509184229 62 0.0 0.0 0.00 0.00 0.00 10 1015.6
20260509183729 62 0.0 0.0 0.00 0.00 0.00 10 1015.5
20260509183229 62 0.0 0.0 0.00 0.00 0.00 10 1015.5
20260509182729 62 0.0 0.0 0.00 0.00 0.00 10 1015.4
20260509182229 62 0.0 0.0 0.00 0.00 0.00 10 1015.3
20260509181729 62 0.0 0.0 0.00 0.00 0.00 10 1015.3
20260509181229 62 0.0 0.0 0.00 0.00 0.00 10 1015.3
20260509180729 62 0.0 0.0 0.00 0.00 0.00 10 1015.2
20260509180229 62 0.0 0.0 0.00 0.00 0.00 10 1015.0
20260509175729 62 0.0 0.0 0.00 0.00 0.00 10 1014.9
20260509175229 62 0.0 0.0 0.00 0.00 0.00 10 1015.1
20260509174729 62 0.0 0.0 0.00 0.00 0.00 10 1015.0
20260509174229 62 0.0 0.0 0.00 0.00 0.00 10 1014.9
20260509173729 61 0.0 0.0 0.00 0.00 0.00 10 1014.9
20260509173229 61 0.0 0.0 0.00 0.00 0.00 10 1014.8
20260509172729 61 0.0 0.0 0.00 0.00 0.00 10 1015.0
20260509172229 61 0.0 0.0 0.00 0.00 0.00 10 1015.1
20260509171729 61 0.0 0.0 0.00 0.00 0.00 10 1015.1
20260509171229 61 0.0 0.0 0.00 0.00 0.00 10 1015.0
20260509170729 61 0.0 0.0 0.00 0.00 0.00 10 1014.8
20260509170229 61 0.0 0.0 0.00 0.00 0.00 10 1015.1
20260509165729 61 0.0 0.0 0.00 0.00 0.00 10 1015.1
20260509165229 61 0.0 0.0 0.00 0.00 0.00 10 1015.1
20260509164729 61 0.0 0.0 0.00 0.00 0.00 10 1015.1
20260509164229 60 0.0 0.0 0.00 0.00 0.00 10 1015.4
20260509163729 61 0.0 0.0 0.00 0.00 0.00 10 1015.7
20260509163229 61 0.0 0.0 0.00 0.00 0.00 10 1016.1
20260509162729 61 0.0 0.0 0.00 0.00 0.00 10 1016.4
20260509162229 61 0.0 0.0 0.00 0.00 0.00 10 1016.7
20260509161729 61 0.0 0.0 0.00 0.00 0.00 10 1016.9
20260509161229 61 0.0 0.0 0.00 0.00 0.00 10 1016.9
20260509160729 61 0.0 0.0 0.00 0.00 0.00 10 1017.0
20260509160229 61 0.0 0.0 0.00 0.00 0.00 10 1017.2
20260509155729 61 0.0 0.0 0.00 0.00 0.00 10 1017.5
20260509155229 61 0.0 0.0 0.00 0.00 0.00 10 1017.5
20260509154729 62 0.0 0.0 0.00 0.00 0.00 10 1017.7
20260509154229 62 0.0 0.0 0.00 0.00 0.00 10 1017.8
20260509153729 62 0.0 0.0 0.00 0.00 0.00 10 1017.6
20260509153229 63 0.0 0.0 0.00 0.00 0.00 10 1017.6
20260509152729 63 0.0 0.0 0.00 0.00 0.00 10 1017.4
20260509152229 63 0.0 0.0 0.00 0.00 0.00 10 1017.3
20260509151729 64 0.0 0.0 0.00 0.00 0.00 10 1017.2
20260509151229 63 0.0 0.0 0.00 0.00 0.00 10 1017.2
20260509150729 63 0.0 0.0 0.00 0.00 0.00 10 1016.7
20260509150229 63 0.0 0.0 0.00 0.00 0.00 10 1015.9
20260509145729 63 0.0 0.0 0.00 0.00 0.00 10 1014.6
20260509145229 63 0.0 0.0 0.00 0.00 0.00 10 1013.9
20260509144729 63 0.0 0.0 0.00 0.00 0.00 10 1013.9
20260509144229 63 0.0 0.0 0.00 0.00 0.00 10 1014.1
20260509143729 63 0.0 0.0 0.00 0.00 0.00 10 1014.1
20260509143229 63 0.0 0.0 0.00 0.00 0.00 10 1014.3
20260509142729 63 0.0 0.0 0.00 0.00 0.00 10 1014.5
20260509142229 63 0.0 0.0 0.00 0.00 0.00 10 1014.8
20260509141729 63 0.0 0.0 0.00 0.00 0.00 10 1015.2
20260509141229 64 0.0 0.0 0.00 0.00 0.00 10 1015.8
20260509140729 64 0.0 0.0 0.00 0.00 0.00 10 1016.3
20260509140229 64 0.0 0.0 0.00 0.00 0.00 10 1016.6
20260509135729 64 0.0 0.0 0.00 0.00 0.00 10 1016.6
20260509135229 64 0.0 0.0 0.00 0.00 0.00 10 1016.8
20260509134729 64 0.0 0.0 0.00 0.00 0.00 10 1017.0
20260509134229 64 0.0 0.0 0.00 0.00 0.00 10 1017.3
20260509133729 65 0.0 0.0 0.00 0.00 0.00 10 1017.4
20260509133229 65 0.0 0.0 0.00 0.00 0.00 10 1017.4
20260509132729 66 0.0 0.0 0.00 0.00 0.00 10 1017.3
20260509132229 66 0.0 0.0 0.00 0.00 0.00 10 1017.1
20260509131729 67 0.0 0.0 0.00 0.00 0.00 10 1016.9
20260509131229 67 0.0 0.0 0.00 0.00 0.00 10 1016.9
20260509130729 67 0.0 0.0 0.00 0.00 0.00 10 1016.7
20260509130229 67 0.0 0.0 0.00 0.00 0.00 10 1016.4
20260509125729 67 0.0 0.0 0.00 0.00 0.00 10 1015.9
20260509125229 67 0.0 0.0 0.00 0.00 0.00 10 1015.6
20260509124729 67 0.0 0.0 0.00 0.00 0.00 10 1015.4
20260509123729 67 0.0 0.0 0.00 0.00 0.00 10 1015.4
20260509123229 67 0.0 0.0 0.00 0.00 0.00 10 1015.5
20260509122729 67 0.0 0.0 0.00 0.00 0.00 10 1015.7
20260509122229 67 0.0 0.0 0.00 0.00 0.00 10 1015.9
20260509121729 67 0.0 0.0 0.00 0.00 0.00 10 1016.0
20260509121229 67 0.0 0.0 0.00 0.00 0.00 10 1016.2
20260509120734 67 0.0 0.0 0.00 0.00 0.00 10 1016.3
20260509120229 67 0.0 0.0 0.00 0.00 0.00 10 1016.6
20260509115729 66 0.0 0.0 0.00 0.00 0.00 10 1016.8
20260509115229 66 0.0 0.0 0.00 0.00 0.00 10 1017.1
20260509114729 66 0.0 0.0 0.00 0.00 0.00 10 1017.4
20260509114229 65 0.0 0.0 0.00 0.00 0.00 10 1017.7
20260509113729 65 0.0 0.0 0.00 0.00 0.00 10 1017.9
20260509113229 65 0.0 0.0 0.00 0.00 0.00 10 1018.0
20260509112729 66 0.0 0.0 0.00 0.00 0.00 10 1018.1
20260509112229 67 0.0 0.0 0.00 0.00 0.00 10 1018.1
20260509111729 67 0.0 0.0 0.00 0.00 0.00 10 1018.0
20260509111229 68 0.0 0.0 0.00 0.00 0.00 10 1018.0
20260509110729 69 0.0 0.0 0.00 0.00 0.00 10 1017.9
20260509110229 69 0.0 0.0 0.00 0.00 0.00 10 1017.7
20260509105729 69 0.0 0.0 0.00 0.00 0.00 10 1017.6
20260509105228 69 0.0 0.0 0.00 0.00 0.00 10 1017.6
20260509104729 69 0.0 0.0 0.00 0.00 0.00 10 1017.5
20260509104229 68 0.0 0.0 0.00 0.00 0.00 10 1017.8
20260509103729 69 0.0 0.0 0.00 0.00 0.00 10 1017.8
20260509103229 68 0.0 0.0 0.00 0.00 0.00 10 1017.9
20260509102728 68 0.0 0.0 0.00 0.00 0.00 10 1018.1
20260509102228 68 0.0 0.0 0.00 0.00 0.00 10 1018.1